Weather Roundup
Issued by NWS

Home | Current Version | Previous Version | Graphics & Text | Print | Product List | Glossary Off
Versions: 1 2 3 4 5 6 7 8 9 10 11 12 13 14 15 16 17 18 19 20 21 22 23 24 25 26 27 28 29 30 31 32 33 34 35 36 37 38 39 40 41 42 43 44 45 46 47 48 49 50

000
NZUS93 KARX 120259
HRRWXR

CURRENT HOURLY OBSERVATIONS ACROSS
MUCH OF THE UPPER MISSISSIPPI VALLEY
NATIONAL WEATHER SERVICE LA CROSSE WI
900 PM CST MON DEC 11 2017


...SOUTHEAST MINNESOTA...


CITY           SKY/WX    TMP DP  RH WIND       PRES   REMARKS
ROCHESTER      PTCLDY    21  13  71 N22G32    30.09R WCI   5
ROCHESTER/MAYO MOCLDY    23  14  67 NW17G31   30.10R WCI   9
WINONA         MOCLDY    27  16  63 NW18      30.09R WCI  13
AUSTIN         NOT AVBL
ALBERT LEA     NOT AVBL
DODGE CENTER   MOCLDY    21  16  79 NW17      30.11R WCI   7
PRESTON        CLOUDY    24  15  69 N17G24    30.07R WCI  10
OWATONNA       CLEAR     21  12  68 NW20G30   30.15R WCI   6
FARIBAULT      CLEAR     21  12  68 NW13      30.17R WCI   9
$$

...ELSEWHERE IN MINNESOTA...


CITY           SKY/WX    TMP DP  RH WIND       PRES   REMARKS
MINNEAPOLIS    CLEAR     21  12  68 N17       30.19R WCI   7
INTNL FALLS    CLEAR      5   0  79 NW9       30.20R WCI  -9
DULUTH         MOCLDY    12   5  73 NW10G22   30.08R WCI  -1
RED WING       CLEAR     23   9  54 NW8G18    30.15R WCI  14
REDWOOD FALLS  CLEAR     15   8  73 NW14G24   30.28R WCI   0
MANKATO        CLEAR     20  15  81 NW16      30.21R WCI   6
WORTHINGTON    CLEAR     17  11  77 N25G31    30.25R WCI  -1
FAIRMONT       PTCLDY    17  12  80 NW25G33   30.22R WCI  -1
$$

...SOUTHWEST WISCONSIN...


CITY           SKY/WX    TMP DP  RH WIND       PRES   REMARKS
LA CROSSE      PTCLDY    25  13  60 N18G28    30.06R WCI  11
PRAIRIE DU CHI CLOUDY    32  19  59 NW15G28   30.01R WCI  22
BOSCOBEL       CLOUDY    32  20  61 N12G23    30.00R WCI  23
LONE ROCK      NOT AVBL
PLATTEVILLE    CLOUDY    32  25  75 N14G26    29.95R WCI  22
FORT MC COY    CLOUDY    26  15  65 NW13G21   30.03R WCI  14
CAMP DOUGLAS   FLURRIES  25  12  58 NW22G30   29.98R WCI  10
MAUSTON-NEW LI CLOUDY    27  15  61 NW21G29   29.97R WCI  13
VIROQUA        CLOUDY    27  20  75 NW24G31   29.98R WCI  12
WIS DELLS      CLOUDY    29  17  60 NW21G31   29.93R WCI  16
$$

...ELSEWHERE IN WISCONSIN...


CITY           SKY/WX    TMP DP  RH WIND       PRES   REMARKS
MILWAUKEE      CLOUDY    31  24  75 NW16G35   29.85R WCI  20
MADISON        CLOUDY    30  21  69 NW8G23    29.91R WCI  22
GREEN BAY      FLURRIES  26  14  60 N23G31    29.89R WCI  11
EAU CLAIRE     NOT AVBL
BLACK RVR FLS  CLOUDY    25  10  54 NW15      30.04R WCI  12
MEDFORD        CLOUDY    18   8  64 NW17G30   29.96R WCI   3
WAUSAU         CLOUDY    19   7  59 NW16G26   29.94R WCI   4
WIS RAPIDS     PTCLDY    22   9  57 N23G31    29.99R WCI   6
MARSHFIELD     MOCLDY    19   9  65 NW22G28   29.97R WCI   2
RICE LAKE      MOCLDY    18   9  68 CALM      30.11R
$$

...NORTHEAST IOWA...


CITY           SKY/WX    TMP DP  RH WIND       PRES   REMARKS
WATERLOO       MOCLDY    29  18  63 N29G37    30.08R WCI  14
DUBUQUE        CLOUDY    31  23  72 N22G28    29.96R WCI  18
DECORAH        MOCLDY    27  16  63 N23G36    30.03R WCI  12
MASON CITY     CLOUDY    26  16  65 NW22G35   30.14R WCI  12
CHARLES CITY   PTCLDY    25  18  74 NW23G35   30.10R WCI  10
OELWEIN        CLOUDY    28  21  74 N26G36    30.05R WCI  13
$$

...ELSEWHERE IN IOWA...


CITY           SKY/WX    TMP DP  RH WIND       PRES   REMARKS
DES MOINES     CLOUDY    29  19  66 NW22G32   30.18R WCI  15
IOWA CITY      CLOUDY    37  26  64 N18G31    30.05R WCI  27
FORT DODGE     CLOUDY    23  16  74 N12G25    30.20R WCI  12
MARSHALLTOWN   CLOUDY    30  23  75 NW24G32   30.12R WCI  16
CEDAR RAPIDS   CLOUDY    34  25  69 N24G35    30.02R WCI  21
$$

...NORTHERN ILLINOIS...


CITY           SKY/WX    TMP DP  RH WIND       PRES   REMARKS
CHICAGO-OHARE  CLOUDY    32  27  81 NW21G26   29.82R WCI  20
CHICAGO-MIDWAY CLOUDY    33  29  85 NW22      29.82R WCI  21
MOLINE         CLOUDY    36  29  75 N14G25    29.97R WCI  27
ROCKFORD       CLOUDY    32  26  78 N23G31    29.92R WCI  19
PEORIA         CLOUDY    37  32  82 NW15G28   29.93R WCI  28
$$

NOTE: "FAIR" INDICATES FEW OR NO CLOUDS BELOW 12,000 FEET WITH NO
SIGNIFICANT WEATHER AND/OR OBSTRUCTIONS TO VISIBILITY. WIND
SPEEDS ARE IN MILES-PER-HOUR.




USA.gov is the U.S. government's official web portal to all federal, state and local government web resources and services.